Chillicothe, MO

4:30 AM CST on December 13, 2019 (GMT -0600)
Chillicothe

Weather History for KCDJ - October, 2019

Change the Weather History Date:

Saturday, October 5, 2019

  Actual Average (KIRK) Record (KIRK)
Temperature  
Mean Temperature 62 °F -  
Max Temperature 70 °F 70 °F 89 °F (1938)
Min Temperature 51 °F 48 °F 28 °F (1980)
Degree Days  
Heating Degree Days 4    
Growing Degree Days 12 (Base 50)    
Moisture  
Dew Point 54 °F    
Average Humidity 80    
Maximum Humidity 97    
Minimum Humidity 70    
Precipitation  
Precipitation 0.29 in - - ()
Sea Level Pressure  
Sea Level Pressure 29.99 in    
Wind  
Wind Speed 5 mph (South)    
Max Wind Speed 12 mph    
Max Gust Speed 20 mph    
Averages and records for this station are not official NWS values.
T = Trace of Precipitation, MM = Missing Value Source: NWS Daily Summary

Daily Weather History Graph

Daily Weather History Graph

Search for Another Location

Airport or City:

Astronomy

Oct. 05, 2019 Rise Set
Actual Time 7:14 AM CDT 6:50 PM CDT
Civil Twilight 6:47 AM CDT 7:17 PM CDT
Nautical Twilight 6:16 AM CDT 7:48 PM CDT
Astronomical Twilight 5:44 AM CDT 8:20 PM CDT
Moon 2:39 PM CDT (10/5) No Moon Set
Length of Visible Light 12h 30m
Length of Day
11h 36m
Waxing Crescent, 50% of the Moon is Illuminated
Oct 5
Waxing Crescent
Oct 13
Full
Oct 21
Last Quarter
Oct 27
New
Nov 4
First Quarter

Hourly Weather History & Observations

Time (CDT) Temp. Dew Point Humidity Pressure Visibility Wind Dir Wind Speed Gust Speed Precip Events Conditions
12:52 AM 57.0 °F 50.0 °F 77% 30.12 in - Variable 5.8 mph - N/A   Unknown
1:52 AM 57.9 °F 48.9 °F 72% 30.10 in - Variable 3.5 mph - N/A   Unknown
2:52 AM 57.9 °F 48.9 °F 72% 30.09 in - SE 4.6 mph - N/A   Unknown
3:52 AM 57.9 °F 50.0 °F 75% 30.08 in - SE 3.5 mph - N/A   Unknown
4:52 AM 57.0 °F 50.0 °F 77% 30.05 in - Variable 4.6 mph - N/A   Unknown
5:52 AM 57.9 °F 50.0 °F 75% 30.03 in - SE 6.9 mph - N/A   Unknown
6:52 AM 57.9 °F 48.9 °F 72% 30.00 in - SSE 8.1 mph 18.4 mph N/A   Unknown
7:52 AM 59.0 °F 50.0 °F 72% 29.99 in - South 6.9 mph - N/A   Unknown
8:52 AM 60.1 °F 51.1 °F 72% 29.97 in - South 8.1 mph - N/A   Unknown
9:52 AM 63.0 °F 53.1 °F 70% 29.95 in - South 11.5 mph 19.6 mph N/A   Unknown
10:52 AM 64.0 °F 54.0 °F 70% 29.95 in - South 5.8 mph - N/A   Unknown
11:52 AM 62.1 °F 57.9 °F 86% 29.94 in - South 4.6 mph - 0.01 in   Unknown
12:52 PM 64.0 °F 59.0 °F 84% 29.94 in - South 5.8 mph - 0.01 in   Unknown
1:52 PM 63.0 °F 61.0 °F 93% 29.91 in - South 8.1 mph - 0.06 in   Unknown
2:52 PM 63.0 °F 62.1 °F 97% 29.89 in - South 6.9 mph - 0.21 in   Unknown
4:52 PM 69.1 °F 66.0 °F 90% 29.87 in - SSW 4.6 mph - N/A   Unknown
5:52 PM 69.1 °F 66.9 °F 93% 29.87 in - Calm Calm - N/A   Unknown
6:52 PM 66.9 °F 59.0 °F 76% 29.91 in - NW 6.9 mph - N/A   Unknown
7:52 PM 63.0 °F 53.1 °F 70% 29.97 in - Variable 5.8 mph - N/A   Unknown
8:52 PM 61.0 °F 52.0 °F 72% 30.00 in - Variable 3.5 mph - N/A   Unknown
9:52 PM 57.0 °F 53.1 °F 87% 30.03 in - Calm Calm - N/A   Unknown
10:52 PM 54.0 °F 52.0 °F 93% 30.05 in - Calm Calm - N/A   Unknown
11:52 PM 51.1 °F 50.0 °F 96% 30.06 in - Calm Calm - N/A   Unknown